This is the latest recevied weather packets stored in our database for station/object KF7SOJ. If no packets are shown the sender has not sent any weather packets the latest 1 day(s).
| Time | Temp. | Humidity | Pressure | Rain* | Wind** | Luminosity | Snow |
|---|---|---|---|---|---|---|---|
| 1778055230 | 1.11° C | 50% | 935.3 hPa | 0 mm | - | 0 W/m² | - |
| 1778054927 | 1.67° C | 49% | 935.1 hPa | 0 mm | - | 0 W/m² | - |
| 1778053110 | 1.11° C | 50% | 935.5 hPa | 0 mm | - | 0 W/m² | - |
| 1778052504 | 1.67° C | 48% | 935.6 hPa | 0 mm | - | 0 W/m² | - |
| 1778052202 | 1.67° C | 49% | 935.6 hPa | 0 mm | - | 0 W/m² | - |
| 1778051597 | 1.67° C | 48% | 935.5 hPa | 0 mm | - | 0 W/m² | - |
| 1778051294 | 1.67° C | 48% | 935.7 hPa | 0 mm | - | 0 W/m² | - |
| 1778050991 | 1.67° C | 48% | 935.5 hPa | 0 mm | - | 0 W/m² | - |
| 1778050386 | 1.67° C | 49% | 935.6 hPa | 0 mm | - | 0 W/m² | - |
| 1778049475 | 1.67° C | 47% | 935.6 hPa | 0 mm | - | 0 W/m² | - |
| 1778049173 | 2.78° C | 46% | 935.6 hPa | 0 mm | - | 0 W/m² | - |
| 1778048568 | 2.22° C | 46% | 935.5 hPa | 0 mm | - | 0 W/m² | - |
| 1778048264 | 2.22° C | 46% | 935.6 hPa | 0 mm | - | 0 W/m² | - |
| 1778047660 | 2.78° C | 45% | 935.6 hPa | 0 mm | - | 0 W/m² | - |
| 1778047054 | 2.78° C | 45% | 935.4 hPa | 0 mm | - | 0 W/m² | - |
| 1778046144 | 1.67° C | 47% | 935.4 hPa | 0 mm | - | 0 W/m² | - |
| 1778045841 | 2.22° C | 47% | 935.4 hPa | 0 mm | - | 0 W/m² | - |
| 1778045540 | 2.22° C | 45% | 935.4 hPa | 0 mm | - | 0 W/m² | - |
| 1778045237 | 2.78° C | 45% | 935.4 hPa | 0 mm | - | 0 W/m² | - |
| 1778044633 | 2.78° C | 44% | 935.3 hPa | 0 mm | - | 0 W/m² | - |
| 1778044329 | 3.33° C | 44% | 935.3 hPa | 0 mm | - | 0 W/m² | - |
| 1778043117 | 3.33° C | 43% | 935.3 hPa | 0 mm | - | 0 W/m² | - |
| 1778042815 | 3.33° C | 43% | 935.4 hPa | 0 mm | - | 0 W/m² | - |
| 1778042209 | 3.33° C | 43% | 935.3 hPa | 0 mm | - | 0 W/m² | - |
| 1778041606 | 3.33° C | 43% | 935.3 hPa | 0 mm | - | 0 W/m² | - |
* Rain latest hour (hover to see other rain measurements)
** Current wind speed in m/s (hover to see current wind gust speed)